Погода в Веселовке

Россия / Республика Коми     61°28′16″N   51°35′05″E
В апреле 2022 года жителям России запретили посещать сайт meteo.paraplan.net по решению Генеральной прокуратуры. Аудитория сайта уменьшилась в 10 раз. Владельцы сайта не видят смысла в поддержке погодного сервера в таких условиях. Сайт будет закрыт в октябре.
темп.,
°C
ветер,
м/с
пор.,
м/с
влажн.,
%
обл.,
%
осадки,
мм/ч
давл.,
гПа
погр.,
м
29 сентября, чт
чт2900:00−2вюв311730 0.0 1026332
03:00−3вюв311740 0.0 1026360
06:00−3вюв412730 0.0 1026442
09:00+2вюв510500 0.0 1025777
12:00+5вюв69410 0.0 10251093
15:00+5вюв510443 0.0 10241083
18:00+1вюв412577 0.0 1025694
21:000вюв4146526 0.0 1025580
30 сентября, пт
пт3000:00−1юв41368100 0.0 1025558
03:00−1юв4127299 0.0 1026568
06:00−1юв41183100 0.1 1026471
09:000юв41079100 0.3 1027469
12:00+1юв41075100 0.1 1027479
15:00+1ююв41077100 0.1 1027454
18:00+1ююв41181100 0.0 1027456
21:00+2ююв41183100 0.0 1026431
1 октября, сб
сб100:00+2ююв41088100 0.0 1025411
03:00+3ююв41190100 0.0 1024407
06:00+3ююв51393100 0.0 1023549
09:00+6ю51388100 0.0 1022585
12:00+8ю51382100 0.0 1020655
15:00+8ююв51392100 2.1 1019558
18:00+8ю41294100 2.9 1019662
21:00+7ю31097100 7.0 1018539
2 октября, вс
вс200:00+7ю3898100 2.3 1017426
03:00+7ююв2799100 4.5 1016329
06:00+7юв2798100 1.2 1015317
09:00+7юв3798100 4.6 1014402
12:00+6юв3897100 1.3 1012454
15:00+7юв2797100 1.7 1011367
18:00+7вюв2699100 4.4 1009266
21:00+7св1399100 8.8 1007128
3 октября, пн
пн300:00+6с3698100 2.3 1007331
03:00+6ссз41097100 6.5 1010550
06:00+7ссз3796100 0.9 1010443
09:00+7ссз3694100 0.9 1013536
12:00+8ссз2491100 0.1 1016412
15:00+8ссз2492100 0.1 1019399
18:00+7ссв1292100 0.0 102152
21:00+7в1288100 0.1 102258